FW8483 Weather Reports


time (UTC)temp
C
wind
direction
speed
KPH
gust
KPH
rain 1hr
cm
rain 24hr
cm
rain mn
cm
humidity
%
barometer
mb
20260905235007 26 156 0.0 0.0 0.00 0.71 0.69 92 1011.9
20260905234517 26 156 0.0 0.0 0.00 0.71 0.69 92 1011.9
20260905234008 26 156 0.0 0.0 0.00 0.71 0.69 92 1011.9
20260905233510 27 156 0.0 0.0 0.00 0.71 0.69 91 1011.9
20260905233022 27 156 0.0 0.0 0.00 0.71 0.69 91 1011.8
20260905232509 27 156 0.0 0.0 0.00 0.71 0.69 90 1011.9
20260905232008 27 156 0.0 0.0 0.00 0.71 0.69 91 1011.9
20260905231519 27 156 0.0 0.0 0.00 0.71 0.69 91 1012.0
20260905231009 27 156 0.0 0.0 0.00 0.71 0.69 91 1011.9
20260905230511 27 156 0.0 0.0 0.00 0.71 0.69 89 1011.9
20260905230019 27 156 0.0 0.0 0.00 0.71 0.69 90 1012.0
20260905225503 27 320 0.0 0.0 0.00 0.71 0.69 89 1011.9
20260905225003 27 318 0.0 0.0 0.00 0.71 0.69 89 1011.8
20260905224519 27 338 0.0 0.0 0.00 0.71 0.69 89 1011.8
20260905224005 27 352 0.0 0.0 0.00 0.71 0.69 88 1011.9
20260905223512 27 352 0.0 0.0 0.00 0.71 0.69 88 1012.0
20260905223021 27 352 0.0 3.2 0.00 0.71 0.69 88 1011.9
20260905222510 27 320 0.0 3.2 0.00 0.71 0.69 87 1011.9
20260905222011 27 338 1.6 3.2 0.00 0.71 0.69 86 1012.0
20260905221520 27 336 0.0 3.2 0.00 0.74 0.69 86 1012.0
20260905221010 27 336 0.0 6.4 0.00 0.74 0.69 85 1012.1
20260905220511 28 338 1.6 6.4 0.00 0.76 0.69 83 1012.0
20260905220022 28 347 3.2 6.4 0.00 0.79 0.69 81 1012.0
20260905215512 28 342 3.2 6.4 0.00 0.81 0.69 80 1012.1
20260905215006 29 28 1.6 6.4 0.00 0.84 0.69 80 1012.1
20260905214513 29 47 0.0 0.0 0.00 0.86 0.69 83 1012.3
20260905214007 29 236 0.0 0.0 0.00 0.89 0.69 81 1012.4
20260905213509 28 236 0.0 0.0 0.00 0.91 0.69 80 1012.3
20260905213025 28 236 0.0 0.0 0.00 0.94 0.69 81 1012.3
20260905212510 28 144 0.0 4.8 0.00 0.97 0.69 81 1012.3
20260905212009 28 9 0.0 4.8 0.00 0.99 0.69 80 1012.3
20260905211522 28 9 1.6 11.3 0.00 0.99 0.69 79 1012.3
20260905211011 29 344 4.8 11.3 0.00 1.02 0.69 78 1012.3
20260905210512 30 314 1.6 11.3 0.00 1.02 0.69 80 1012.3
20260905210027 30 271 1.6 11.3 0.00 1.04 0.69 78 1012.2
20260905205511 30 259 4.8 8.0 0.00 1.04 0.69 77 1012.1
20260905205011 30 307 0.0 8.0 0.00 1.04 0.69 79 1012.1
20260905204512 30 204 0.0 6.4 0.00 1.07 0.69 81 1012.2
20260905204005 29 252 1.6 6.4 0.00 1.07 0.69 82 1012.3
20260905203508 29 238 0.0 3.2 0.00 1.09 0.69 86 1012.4
20260905203025 28 209 0.0 4.8 0.00 1.12 0.69 83 1012.4
20260905202509 28 204 0.0 4.8 0.00 1.17 0.69 83 1012.4
20260905202010 28 249 0.0 11.3 0.00 1.22 0.69 83 1012.5
20260905201524 28 289 0.0 11.3 0.00 1.30 0.69 83 1012.4
20260905201011 29 233 3.2 9.7 0.00 1.40 0.69 86 1012.5
20260905200511 29 247 1.6 6.4 0.00 1.52 0.69 85 1012.4
20260905200033 29 259 0.0 11.3 0.05 1.65 0.69 86 1012.5
20260905195514 29 219 1.6 12.9 0.38 1.80 0.69 84 1012.6
20260905195013 29 161 6.4 12.9 0.66 1.98 0.69 85 1012.7
20260905194526 28 163 4.8 11.3 0.69 2.16 0.69 86 1012.6
20260905194012 28 173 4.8 11.3 0.69 2.34 0.69 88 1012.6
20260905193503 27 182 3.2 6.4 0.69 2.54 0.69 87 1012.8
20260905193014 27 165 0.0 4.8 0.69 2.77 0.69 88 1013.0
20260905192506 27 144 1.6 4.8 0.69 3.02 0.69 87 1013.1
20260905192009 27 148 1.6 4.8 0.69 3.25 0.69 90 1013.0
20260905191537 27 175 0.0 4.8 0.69 3.56 0.69 91 1013.1
20260905191011 27 195 0.0 14.5 0.69 3.78 0.69 90 1013.2
20260905190511 27 97 1.6 14.5 0.69 4.04 0.69 86 1013.2
20260905190043 28 119 8.0 16.1 0.64 4.27 0.64 85 1013.5
20260905185512 28 205 3.2 16.1 0.30 4.17 0.30 84 1013.8
20260905185012 30 248 8.0 16.1 0.03 4.09 0.03 79 1013.9
20260905184536 31 220 1.6 8.0 0.00 4.22 0.00 75 1013.7
20260905184012 31 234 0.0 6.4 0.00 4.24 0.00 73 1013.6
20260905183513 31 306 1.6 9.7 0.00 4.24 0.00 72 1013.6
20260905183031 31 323 4.8 9.7 0.00 4.24 0.00 72 1013.5
20260905182507 31 276 4.8 9.7 0.00 4.24 0.00 71 1013.3
20260905182008 31 324 0.0 6.4 0.00 4.24 0.00 72 1013.2
20260905181526 31 300 4.8 9.7 0.00 4.24 0.00 69 1013.3
20260905181011 31 276 3.2 9.7 0.00 4.24 0.00 73 1013.3
20260905180511 31 294 3.2 9.7 0.00 4.24 0.00 75 1013.5
20260905180027 31 315 4.8 9.7 0.00 4.24 0.00 74 1013.6
20260905175517 30 224 3.2 8.0 0.00 4.24 0.00 76 1013.6
20260905175019 30 26 0.0 6.4 0.00 4.24 0.00 77 1013.7
20260905174504 30 300 3.2 11.3 0.00 4.24 0.00 76 1013.8
20260905174003 30 248 4.8 11.3 0.00 4.24 0.00 76 1013.9
20260905173503 30 167 3.2 4.8 0.00 4.24 0.00 76 1013.9
20260905173030 30 171 0.0 9.7 0.00 4.24 0.00 77 1014.0
20260905172507 30 291 4.8 9.7 0.00 4.24 0.00 76 1014.1
20260905172007 30 255 0.0 6.4 0.00 4.24 0.00 78 1014.1
20260905171515 30 315 3.2 6.4 0.00 4.24 0.00 78 1014.3
20260905171009 30 336 0.0 11.3 0.00 4.24 0.00 79 1014.3
20260905170510 30 336 6.4 11.3 0.00 4.24 0.00 77 1014.5
20260905170029 30 274 0.0 8.0 0.00 4.24 0.00 77 1014.5
20260905165514 30 44 3.2 8.0 0.00 4.24 0.00 78 1014.4
20260905165013 30 76 1.6 8.0 0.00 4.24 0.00 80 1014.5
20260905164532 30 42 4.8 9.7 0.00 4.27 0.00 81 1014.6
20260905164017 29 312 4.8 11.3 0.00 4.27 0.00 80 1014.7
20260905163503 29 309 4.8 14.5 0.00 4.27 0.00 82 1014.7
20260905163009 29 352 6.4 14.5 0.00 4.27 0.00 81 1014.9
20260905162507 30 24 4.8 9.7 0.00 4.27 0.00 81 1014.9
20260905162005 30 334 3.2 8.0 0.00 4.27 0.00 81 1014.9
20260905161514 29 311 3.2 6.4 0.00 4.27 0.00 80 1014.9
20260905161008 29 80 1.6 8.0 0.00 4.27 0.00 82 1014.8
20260905160509 29 57 4.8 6.4 0.00 4.27 0.00 81 1014.9
20260905160021 28 346 1.6 6.4 0.00 4.27 0.00 83 1015.0
20260905155514 28 5 1.6 8.0 0.00 4.27 0.00 85 1015.0
20260905155011 28 86 3.2 9.7 0.00 4.27 0.00 90 1014.9
20260905154526 27 22 3.2 11.3 0.00 4.27 0.00 90 1014.9
20260905154015 28 22 4.8 11.3 0.00 4.27 0.00 89 1014.9
20260905153516 28 14 4.8 8.0 0.00 4.27 0.00 90 1014.9
20260905153037 27 45 1.6 6.4 0.00 4.27 0.00 91 1014.9
20260905152504 27 23 1.6 4.8 0.00 4.27 0.00 92 1015.1
20260905152006 27 15 0.0 6.4 0.00 4.27 0.00 93 1015.1
20260905151515 27 17 3.2 6.4 0.00 4.27 0.00 93 1015.2
20260905151007 27 360 3.2 6.4 0.00 4.27 0.00 94 1015.1
20260905150506 27 317 1.6 4.8 0.00 4.27 0.00 95 1015.1
20260905150019 26 103 0.0 3.2 0.00 4.27 0.00 97 1015.1
20260905145512 26 18 0.0 3.2 0.00 4.27 0.00 97 1015.1
20260905145010 26 18 0.0 3.2 0.00 4.27 0.00 98 1015.0
20260905144528 26 142 0.0 0.0 0.00 4.27 0.00 98 1015.0
20260905144011 26 40 0.0 0.0 0.00 4.27 0.00 98 1015.0
20260905143515 25 40 0.0 0.0 0.00 4.27 0.00 98 1014.9
20260905143032 25 40 0.0 0.0 0.00 4.27 0.00 98 1015.0
20260905142514 25 31 0.0 0.0 0.00 4.27 0.00 98 1015.0
20260905142014 25 31 0.0 0.0 0.00 4.27 0.00 98 1015.0
20260905141511 25 31 0.0 0.0 0.00 4.27 0.00 98 1015.0
20260905141006 25 78 0.0 6.4 0.00 4.27 0.00 98 1014.9
20260905140508 25 85 0.0 6.4 0.00 4.27 0.00 98 1014.9
20260905140029 25 82 1.6 6.4 0.00 4.27 0.00 98 1014.9
20260905135507 25 97 4.8 6.4 0.00 4.27 0.00 98 1014.9
20260905135012 25 105 3.2 6.4 0.00 4.27 0.00 98 1015.0
20260905134525 25 89 3.2 6.4 0.00 4.27 0.00 98 1015.0
20260905134013 24 53 1.6 6.4 0.00 4.27 0.00 98 1015.0
20260905133513 24 93 3.2 6.4 0.00 4.27 0.00 98 1014.9
20260905133030 24 73 4.8 6.4 0.00 4.27 0.00 98 1015.0
20260905132514 24 82 1.6 4.8 0.00 4.27 0.00 98 1015.0
20260905132019 24 82 3.2 4.8 0.00 4.27 0.00 98 1015.0
20260905131529 24 36 3.2 4.8 0.00 4.27 0.00 98 1015.0
20260905131003 23 61 1.6 4.8 0.00 4.27 0.00 98 1015.0
20260905130509 23 83 1.6 4.8 0.00 4.27 0.00 98 1015.0
20260905130017 23 360 0.0 3.2 0.00 4.27 0.00 98 1015.0
20260905125508 23 22 0.0 3.2 0.00 4.27 0.00 98 1014.9
20260905125011 23 48 0.0 3.2 0.00 4.27 0.00 98 1014.9
20260905124525 23 339 1.6 3.2 0.00 4.27 0.00 98 1014.7
20260905124013 23 30 1.6 3.2 0.00 4.27 0.00 98 1014.7
20260905123514 23 86 0.0 3.2 0.00 4.27 0.00 98 1014.7
20260905123033 23 67 1.6 4.8 0.00 4.27 0.00 98 1014.7
20260905122514 23 22 0.0 4.8 0.00 4.27 0.00 98 1014.7
20260905122022 23 26 3.2 4.8 0.00 4.27 0.00 98 1014.7
20260905121532 23 46 0.0 0.0 0.00 4.27 0.00 98 1014.7
20260905121017 23 46 0.0 0.0 0.00 4.27 0.00 98 1014.6
20260905120517 23 46 0.0 0.0 0.00 4.27 0.00 98 1014.4
20260905120018 23 291 0.0 0.0 0.00 4.27 0.00 98 1014.3
20260905115506 23 291 0.0 0.0 0.00 4.27 0.00 98 1014.2
20260905115010 23 291 0.0 0.0 0.00 4.27 0.00 98 1014.2
20260905114526 23 185 0.0 0.0 0.00 4.27 0.00 98 1014.2
20260905114011 23 169 0.0 3.2 0.00 4.27 0.00 98 1014.1
20260905113512 23 172 0.0 3.2 0.00 4.27 0.00 98 1014.0
20260905113030 23 180 1.6 3.2 0.00 4.27 0.00 98 1013.8
20260905112515 23 193 0.0 0.0 0.00 4.27 0.00 98 1013.9
20260905112015 23 180 0.0 0.0 0.00 4.27 0.00 98 1013.9
20260905111536 23 70 0.0 0.0 0.00 4.27 0.00 98 1013.9
20260905111015 23 70 0.0 0.0 0.00 4.27 0.00 98 1013.9
20260905110514 23 70 0.0 0.0 0.00 4.27 0.00 98 1013.9
20260905110032 23 70 0.0 0.0 0.00 4.27 0.00 98 1013.9
20260905105519 23 70 0.0 0.0 0.00 4.27 0.00 98 1013.9
20260905105010 23 70 0.0 0.0 0.00 4.27 0.00 98 1013.9
20260905104525 23 70 0.0 0.0 0.00 4.27 0.00 98 1013.9
20260905104010 23 70 0.0 0.0 0.00 4.27 0.00 98 1013.9
20260905103511 23 70 0.0 0.0 0.00 4.27 0.00 98 1013.9
20260905103025 23 70 0.0 0.0 0.00 4.27 0.00 98 1013.8
20260905102513 23 70 0.0 0.0 0.00 4.27 0.00 98 1013.8
20260905102015 23 70 0.0 0.0 0.00 4.27 0.00 98 1013.7
20260905101531 23 70 0.0 0.0 0.00 4.27 0.00 98 1013.9
20260905101014 23 70 0.0 0.0 0.00 4.27 0.00 98 1013.9
20260905100514 23 70 0.0 0.0 0.00 4.27 0.00 98 1013.9
20260905100033 23 70 0.0 0.0 0.00 4.27 0.00 98 1013.9
20260905095515 23 70 0.0 0.0 0.00 4.27 0.00 98 1013.8
20260905095016 23 70 0.0 0.0 0.00 4.27 0.00 98 1013.8
20260905094532 23 70 0.0 0.0 0.00 4.27 0.00 98 1013.8
20260905094008 23 79 0.0 0.0 0.00 4.27 0.00 98 1013.9
20260905093511 23 79 0.0 0.0 0.00 4.27 0.00 98 1013.9
20260905093026 23 79 0.0 0.0 0.00 4.27 0.00 98 1013.8
20260905092511 23 79 0.0 0.0 0.00 4.27 0.00 98 1013.8
20260905092010 23 79 0.0 0.0 0.00 4.27 0.00 98 1013.8
20260905091527 23 79 0.0 0.0 0.00 4.27 0.00 98 1013.7
20260905091015 23 80 0.0 0.0 0.00 4.27 0.00 98 1013.7
20260905090515 23 42 0.0 0.0 0.00 4.27 0.00 98 1013.6
20260905090039 23 42 0.0 0.0 0.00 4.27 0.00 98 1013.6
20260905085514 23 42 0.0 0.0 0.00 4.27 0.00 98 1013.7
20260905085005 23 42 0.0 0.0 0.00 4.27 0.00 98 1013.7
20260905084515 23 42 0.0 0.0 0.00 4.27 0.00 98 1013.7
20260905084008 23 42 0.0 0.0 0.00 4.27 0.00 98 1013.6
20260905083508 23 42 0.0 0.0 0.00 4.27 0.00 98 1013.6
20260905083033 23 42 0.0 0.0 0.00 4.27 0.00 98 1013.6
20260905082510 23 42 0.0 0.0 0.00 4.27 0.00 98 1013.7
20260905082013 23 42 0.0 1.6 0.00 4.27 0.00 98 1013.6
20260905081503 23 42 0.0 3.2 0.00 4.27 0.00 98 1013.5
20260905081003 23 42 1.6 3.2 0.00 4.27 0.00 98 1013.4
20260905080503 23 41 0.0 0.0 0.00 4.27 0.00 98 1013.5
20260905080009 23 51 0.0 0.0 0.00 4.27 0.00 98 1013.4
20260905075506 23 51 0.0 0.0 0.00 4.27 0.00 98 1013.5
20260905075003 23 51 0.0 0.0 0.00 4.27 0.00 98 1013.4
20260905074515 23 51 0.0 0.0 0.00 4.27 0.00 98 1013.3
20260905074006 23 51 0.0 0.0 0.00 4.27 0.00 98 1013.4
20260905073508 23 51 0.0 0.0 0.00 4.27 0.00 98 1013.4
20260905073024 23 51 0.0 0.0 0.00 4.27 0.00 98 1013.3
20260905072511 23 51 0.0 0.0 0.00 4.27 0.00 98 1013.4
20260905072011 23 51 0.0 0.0 0.00 4.27 0.00 98 1013.5
20260905071527 23 93 0.0 0.0 0.00 4.27 0.00 98 1013.4
20260905071016 23 93 0.0 0.0 0.00 4.27 0.00 98 1013.3
20260905070502 23 93 0.0 0.0 0.00 4.27 0.00 98 1013.4
20260905070012 23 80 0.0 0.0 0.00 4.27 0.00 98 1013.4
20260905065502 23 80 0.0 0.0 0.00 4.27 0.00 98 1013.3
20260905065003 23 80 0.0 0.0 0.00 4.27 0.00 98 1013.2
20260905064514 23 178 0.0 0.0 0.00 4.27 0.00 98 1013.3
20260905064003 23 178 0.0 0.0 0.00 4.27 0.00 98 1013.3
20260905063506 23 178 0.0 0.0 0.00 4.27 0.00 98 1013.4
20260905063017 23 178 0.0 0.0 0.00 4.27 0.00 98 1013.5
20260905062507 23 163 0.0 0.0 0.00 4.27 0.00 98 1013.5
20260905062011 23 163 0.0 0.0 0.00 4.27 0.00 98 1013.5
20260905061525 23 163 0.0 0.0 0.00 4.27 0.00 98 1013.5
20260905061011 23 163 0.0 0.0 0.00 4.27 0.00 98 1013.5
20260905060511 23 163 0.0 0.0 0.00 4.27 0.00 98 1013.6
20260905060005 23 163 0.0 0.0 0.00 4.27 0.00 98 1013.6
20260905055505 23 163 0.0 0.0 0.00 4.27 0.00 98 1013.6
20260905055004 23 163 0.0 0.0 0.03 4.27 0.00 98 1013.6
20260905054512 23 163 0.0 0.0 0.03 4.27 0.00 98 1013.6
20260905054007 23 163 0.0 0.0 0.03 4.27 0.00 98 1013.6
20260905053504 23 163 0.0 0.0 0.03 4.27 0.00 98 1013.6
20260905053014 23 163 0.0 0.0 0.03 4.27 0.00 98 1013.7
20260905052507 23 81 0.0 0.0 0.03 4.27 0.00 98 1013.8
20260905052009 23 81 0.0 0.0 0.03 4.27 0.00 98 1013.9
20260905051529 23 81 0.0 0.0 0.03 4.27 0.00 98 1013.9
20260905051010 23 81 0.0 0.0 0.03 4.27 0.00 98 1013.9
20260905050512 23 81 0.0 0.0 0.03 4.27 0.00 98 1013.9
20260905050027 23 81 0.0 0.0 0.03 4.27 0.00 98 1013.8
20260905045515 23 81 0.0 0.0 0.03 4.27 4.27 98 1013.9
20260905045003 23 81 0.0 0.0 0.00 4.24 4.24 98 1014.0
20260905044509 23 81 0.0 0.0 0.00 4.24 4.24 98 1014.1
20260905044004 23 81 0.0 0.0 0.00 4.24 4.24 98 1014.1
20260905043504 23 81 0.0 3.2 0.00 4.24 4.24 98 1014.1
20260905043016 23 81 0.0 3.2 0.00 4.24 4.24 98 1014.1
20260905042508 23 81 1.6 4.8 0.00 4.24 4.24 98 1014.2
20260905042007 23 57 3.2 4.8 0.00 4.24 4.24 98 1014.3
20260905041522 23 57 3.2 4.8 0.00 4.24 4.24 98 1014.2
20260905041009 23 81 3.2 6.4 0.00 4.24 4.24 98 1014.2
20260905040511 23 81 0.0 6.4 0.00 4.24 4.24 97 1014.2
20260905040033 23 57 1.6 4.8 0.00 4.24 4.24 97 1014.3
20260905035514 23 84 1.6 6.4 0.00 4.24 4.24 97 1014.3
20260905035015 23 38 3.2 6.4 0.00 4.24 4.24 97 1014.3
20260905034531 23 59 3.2 6.4 0.00 4.24 4.24 97 1014.4
20260905034003 23 18 1.6 4.8 0.00 4.24 4.24 98 1014.4
20260905033503 23 62 0.0 0.0 0.00 4.24 4.24 98 1014.6
20260905033010 23 36 0.0 0.0 0.00 4.24 4.24 97 1014.5
20260905032502 23 36 0.0 0.0 0.00 4.24 4.24 97 1014.5
20260905032006 23 36 0.0 0.0 0.00 4.24 4.24 97 1014.6
20260905031520 23 36 0.0 0.0 0.00 4.24 4.24 97 1014.6
20260905031008 23 36 0.0 4.8 0.00 4.24 4.24 97 1014.6
20260905030510 23 29 0.0 4.8 0.00 4.24 4.24 97 1014.7
20260905030028 23 59 1.6 6.4 0.00 4.24 4.24 97 1014.8
20260905025512 23 62 3.2 6.4 0.00 4.24 4.24 97 1014.8
20260905025015 23 75 4.8 6.4 0.00 4.24 4.24 97 1014.9
20260905024532 23 92 0.0 4.8 0.00 4.24 4.24 97 1014.9
20260905024016 23 128 0.0 0.0 0.00 4.24 4.24 97 1014.8
20260905023516 23 128 0.0 0.0 0.00 4.24 4.24 97 1014.9
20260905023014 23 128 0.0 0.0 0.00 4.24 4.24 97 1014.8
20260905022506 23 128 0.0 0.0 0.00 4.24 4.24 97 1014.9
20260905022006 23 43 0.0 0.0 0.00 4.24 4.24 97 1015.1
20260905021516 23 43 0.0 0.0 0.00 4.24 4.24 97 1015.0
20260905021009 23 43 0.0 0.0 0.00 4.24 4.24 97 1015.0
20260905020509 23 43 0.0 3.2 0.00 4.24 4.24 97 1014.9
20260905020026 23 43 0.0 3.2 0.00 4.24 4.24 97 1014.9
20260905015512 23 36 1.6 3.2 0.00 4.24 4.24 97 1014.9
20260905015010 23 28 0.0 0.0 0.00 4.24 4.24 97 1014.9
20260905014529 23 84 0.0 0.0 0.00 4.24 4.24 97 1014.9
20260905014014 23 84 0.0 0.0 0.00 4.24 4.24 97 1014.7
20260905013513 23 84 0.0 0.0 0.00 4.24 4.24 97 1014.6
20260905013034 23 84 0.0 0.0 0.00 4.24 4.24 97 1014.6
20260905012514 23 84 0.0 0.0 0.00 4.24 4.24 97 1014.5
20260905012004 23 84 0.0 0.0 0.00 4.24 4.24 97 1014.3
20260905011516 23 84 0.0 0.0 0.00 4.24 4.24 97 1014.2
20260905011007 24 84 0.0 0.0 0.00 4.24 4.24 97 1014.3
20260905010508 24 84 0.0 0.0 0.00 4.24 4.24 97 1014.2
20260905010021 24 84 0.0 0.0 0.00 4.24 4.24 97 1014.2
20260905005508 23 84 0.0 0.0 0.00 4.24 4.24 97 1014.2
20260905005011 24 84 0.0 0.0 0.00 4.24 4.24 97 1014.2
20260905004527 24 84 0.0 0.0 0.00 4.24 4.24 97 1014.3
20260905004017 24 84 0.0 0.0 0.00 4.24 4.24 97 1014.4
20260905003514 24 84 0.0 3.2 0.00 4.24 4.24 97 1014.4
20260905003033 24 84 0.0 3.2 0.00 4.24 4.24 97 1014.4
20260905002516 24 84 0.0 3.2 0.00 4.24 4.24 97 1014.5
20260905002017 24 84 1.6 3.2 0.00 4.24 4.24 97 1014.4
20260905001537 24 84 0.0 0.0 0.00 4.24 4.24 97 1014.3
20260905001003 24 84 0.0 1.6 0.00 4.24 4.24 97 1014.2
20260905000503 24 63 0.0 1.6 0.00 4.24 4.24 97 1014.2
20260905000026 24 350 0.0 3.2 0.00 4.24 4.24 97 1014.1
20260904235509 24 162 0.0 3.2 0.00 4.24 4.24 97 1014.1